When you browse on this site, cookies collect data to enhance your experience and personalize the content and advertising you see.
Visit our Privacy Policy to learn more. By continuing to use the site, you agree to this use of cookies and data.
  • In Schweiz
  • Länderverzeichnis
  • Für 7 Tage
  • Wassertemperatur
  • Satellitenkarten
  • Wetterkarte
  • Widgets
  • user-avatar
    Anmelden

    Stündliche Wetter Satif

    Heute, 23 März, Samstag

    Zeit Temperatur Niederschläge Wind Luftdruck Luftfeuchtigkeit
    00:00 +5°C° 0.1 mm 2 m/S 672 mmHg 94%
    01:00 +5°C° 0.5 mm 2 m/S 672 mmHg 93%
    02:00 +4°C° 0.5 mm 2 m/S 672 mmHg 93%
    03:00 +3°C° 0.5 mm 3 m/S 672 mmHg 93%
    04:00 +4°C° 0.2 mm 2 m/S 672 mmHg 93%
    05:00 +4°C° 0.2 mm 2 m/S 672 mmHg 93%
    06:00 +4°C° 0.2 mm 2 m/S 673 mmHg 94%
    07:00 +4°C° 0.2 mm 3 m/S 673 mmHg 92%
    08:00 +5°C° 0.2 mm 3 m/S 674 mmHg 89%
    09:00 +7°C° 0.2 mm 3 m/S 674 mmHg 87%
    10:00 +8°C° 0.1 mm 3 m/S 674 mmHg 85%
    11:00 +8°C° 0.1 mm 3 m/S 674 mmHg 84%
    12:00 +7°C° 0.1 mm 4 m/S 674 mmHg 82%
    13:00 +9°C° 0.2 mm 3 m/S 674 mmHg 83%
    14:00 +9°C° 0.2 mm 3 m/S 674 mmHg 83%
    15:00 +9°C° 0.2 mm 3 m/S 674 mmHg 84%
    16:00 +9°C° 0.1 mm 3 m/S 674 mmHg 85%
    17:00 +8°C° 0.1 mm 3 m/S 674 mmHg 87%
    18:00 +8°C° 0.1 mm 3 m/S 674 mmHg 88%
    19:00 +7°C° 0 mm 2 m/S 674 mmHg 91%
    20:00 +8°C° 0 mm 1 m/S 674 mmHg 93%
    21:00 +7°C° 0 mm 1 m/S 675 mmHg 95%
    22:00 +7°C° 0 mm 1 m/S 675 mmHg 94%
    23:00 +6°C° 0 mm 1 m/S 675 mmHg 94%

    Morgen, 24 März, Sonntag

    Zeit Temperatur Niederschläge Wind Luftdruck Luftfeuchtigkeit
    00:00 +6°C° 0 mm 1 m/S 675 mmHg 94%
    01:00 +6°C° 0 mm 1 m/S 674 mmHg 93%
    02:00 +5°C° 0 mm 1 m/S 674 mmHg 93%
    03:00 +5°C° 0 mm 1 m/S 674 mmHg 92%
    04:00 +5°C° 0 mm 1 m/S 674 mmHg 91%
    05:00 +5°C° 0 mm 1 m/S 674 mmHg 91%
    06:00 +5°C° 0 mm 1 m/S 674 mmHg 90%
    07:00 +7°C° 0 mm 1 m/S 675 mmHg 82%
    08:00 +9°C° 0 mm 1 m/S 676 mmHg 74%
    09:00 +12°C° 0 mm 2 m/S 677 mmHg 67%
    10:00 +13°C° 0 mm 2 m/S 677 mmHg 61%
    11:00 +14°C° 0 mm 2 m/S 677 mmHg 56%
    12:00 +15°C° 0 mm 2 m/S 677 mmHg 50%
    13:00 +14°C° 0.1 mm 3 m/S 676 mmHg 50%
    14:00 +14°C° 0.1 mm 3 m/S 676 mmHg 50%
    15:00 +14°C° 0.1 mm 4 m/S 676 mmHg 51%
    16:00 +13°C° 0.1 mm 3 m/S 675 mmHg 55%
    17:00 +12°C° 0.1 mm 3 m/S 675 mmHg 60%
    18:00 +12°C° 0.1 mm 2 m/S 675 mmHg 65%
    19:00 +10°C° 0 mm 2 m/S 675 mmHg 66%
    20:00 +10°C° 0 mm 2 m/S 675 mmHg 68%
    21:00 +9°C° 0 mm 2 m/S 676 mmHg 69%
    22:00 +9°C° 0 mm 2 m/S 675 mmHg 70%
    23:00 +9°C° 0 mm 2 m/S 675 mmHg 71%

    übermorgen, 25 März, Montag

    Zeit Temperatur Niederschläge Wind Luftdruck Luftfeuchtigkeit
    00:00 +8°C° 0 mm 2 m/S 675 mmHg 72%
    01:00 +8°C° 0 mm 2 m/S 674 mmHg 73%
    02:00 +8°C° 0 mm 2 m/S 674 mmHg 74%
    03:00 +7°C° 0 mm 2 m/S 674 mmHg 74%
    04:00 +7°C° 0 mm 2 m/S 674 mmHg 76%
    05:00 +7°C° 0 mm 2 m/S 673 mmHg 77%
    06:00 +6°C° 0 mm 2 m/S 673 mmHg 78%
    07:00 +8°C° 0 mm 2 m/S 674 mmHg 71%
    08:00 +10°C° 0 mm 2 m/S 675 mmHg 64%
    09:00 +13°C° 0 mm 2 m/S 675 mmHg 57%
    10:00 +13°C° 0 mm 3 m/S 675 mmHg 53%
    11:00 +14°C° 0 mm 3 m/S 675 mmHg 48%
    12:00 +16°C° 0 mm 3 m/S 675 mmHg 44%
    13:00 +16°C° 0.1 mm 3 m/S 675 mmHg 45%
    14:00 +16°C° 0.1 mm 3 m/S 674 mmHg 47%
    15:00 +16°C° 0.1 mm 3 m/S 674 mmHg 48%
    16:00 +15°C° 0 mm 2 m/S 673 mmHg 53%
    17:00 +14°C° 0 mm 2 m/S 673 mmHg 59%
    18:00 +13°C° 0 mm 1 m/S 673 mmHg 64%
    19:00 +12°C° 0 mm 1 m/S 673 mmHg 68%
    20:00 +11°C° 0 mm 1 m/S 673 mmHg 72%
    21:00 +10°C° 0 mm 0 m/S 673 mmHg 75%
    22:00 +9°C° 0 mm 0 m/S 673 mmHg 75%
    23:00 +10°C° 0 mm 1 m/S 672 mmHg 75%

    26 März, Dienstag

    Zeit Temperatur Niederschläge Wind Luftdruck Luftfeuchtigkeit
    00:00 +10°C° 0 mm 1 m/S 672 mmHg 75%
    01:00 +9°C° 0 mm 1 m/S 672 mmHg 74%
    02:00 +9°C° 0 mm 1 m/S 672 mmHg 73%
    03:00 +9°C° 0 mm 1 m/S 671 mmHg 72%
    04:00 +9°C° 0 mm 1 m/S 671 mmHg 71%
    05:00 +9°C° 0 mm 1 m/S 671 mmHg 71%
    06:00 +9°C° 0 mm 1 m/S 671 mmHg 71%
    07:00 +9°C° 0 mm 0 m/S 672 mmHg 65%
    08:00 +11°C° 0 mm 0 m/S 673 mmHg 59%
    09:00 +13°C° 0 mm 0 m/S 674 mmHg 53%
    10:00 +13°C° 0.2 mm 0 m/S 674 mmHg 55%
    11:00 +14°C° 0.2 mm 1 m/S 674 mmHg 57%
    12:00 +15°C° 0.2 mm 1 m/S 674 mmHg 59%
    13:00 +15°C° 0.1 mm 1 m/S 674 mmHg 60%
    14:00 +15°C° 0.1 mm 1 m/S 673 mmHg 61%
    15:00 +15°C° 0.1 mm 2 m/S 673 mmHg 62%
    16:00 +14°C° 0.2 mm 2 m/S 673 mmHg 69%
    17:00 +13°C° 0.2 mm 2 m/S 673 mmHg 75%
    18:00 +12°C° 0.2 mm 2 m/S 673 mmHg 82%
    19:00 +10°C° 0.1 mm 2 m/S 673 mmHg 86%
    20:00 +9°C° 0.1 mm 2 m/S 673 mmHg 90%
    21:00 +9°C° 0.1 mm 1 m/S 674 mmHg 94%
    22:00 +9°C° 0.1 mm 1 m/S 673 mmHg 94%
    23:00 +9°C° 0.1 mm 1 m/S 673 mmHg 93%

    27 März, Mittwoch

    Zeit Temperatur Niederschläge Wind Luftdruck Luftfeuchtigkeit
    00:00 +8°C° 0.1 mm 2 m/S 673 mmHg 93%
    01:00 +8°C° 0.2 mm 2 m/S 673 mmHg 93%
    02:00 +8°C° 0.2 mm 2 m/S 673 mmHg 93%
    03:00 +8°C° 0.2 mm 2 m/S 673 mmHg 93%
    04:00 +8°C° 0.2 mm 2 m/S 673 mmHg 93%
    05:00 +8°C° 0.2 mm 2 m/S 673 mmHg 93%
    06:00 +8°C° 0.2 mm 2 m/S 673 mmHg 93%
    07:00 +9°C° 0 mm 3 m/S 674 mmHg 88%
    08:00 +10°C° 0 mm 3 m/S 674 mmHg 83%
    09:00 +12°C° 0 mm 3 m/S 675 mmHg 78%
    10:00 +12°C° 0 mm 3 m/S 675 mmHg 74%
    11:00 +13°C° 0 mm 3 m/S 675 mmHg 70%
    12:00 +14°C° 0 mm 4 m/S 675 mmHg 66%
    13:00 +14°C° 0.1 mm 4 m/S 675 mmHg 67%
    14:00 +14°C° 0.1 mm 4 m/S 674 mmHg 68%
    15:00 +14°C° 0.1 mm 4 m/S 674 mmHg 69%
    16:00 +13°C° 0.1 mm 4 m/S 673 mmHg 71%
    17:00 +13°C° 0.1 mm 4 m/S 673 mmHg 74%
    18:00 +13°C° 0.1 mm 4 m/S 673 mmHg 76%
    19:00 +12°C° 0.1 mm 4 m/S 674 mmHg 77%
    20:00 +12°C° 0.1 mm 3 m/S 674 mmHg 78%
    21:00 +12°C° 0.1 mm 2 m/S 674 mmHg 78%
    22:00 +12°C° 0 mm 2 m/S 674 mmHg 79%
    23:00 +10°C° 0 mm 2 m/S 673 mmHg 80%

    28 März, Donnerstag

    Zeit Temperatur Niederschläge Wind Luftdruck Luftfeuchtigkeit
    00:00 +9°C° 0 mm 2 m/S 673 mmHg 81%
    01:00 +8°C° 0 mm 2 m/S 673 mmHg 80%
    02:00 +8°C° 0 mm 2 m/S 672 mmHg 80%
    03:00 +8°C° 0 mm 2 m/S 672 mmHg 79%
    04:00 +7°C° 0 mm 2 m/S 672 mmHg 79%
    05:00 +8°C° 0 mm 1 m/S 672 mmHg 79%
    06:00 +8°C° 0 mm 1 m/S 672 mmHg 78%
    07:00 +9°C° 0 mm 2 m/S 673 mmHg 71%
    08:00 +12°C° 0 mm 2 m/S 673 mmHg 63%
    09:00 +13°C° 0 mm 2 m/S 674 mmHg 55%
    10:00 +14°C° 0.1 mm 2 m/S 674 mmHg 53%
    11:00 +16°C° 0.1 mm 3 m/S 674 mmHg 50%
    12:00 +17°C° 0.1 mm 3 m/S 674 mmHg 47%
    13:00 +17°C° 0.1 mm 3 m/S 674 mmHg 48%
    14:00 +17°C° 0.1 mm 3 m/S 673 mmHg 50%
    15:00 +17°C° 0.1 mm 3 m/S 673 mmHg 51%
    16:00 +15°C° 0.6 mm 2 m/S 673 mmHg 59%
    17:00 +14°C° 0.6 mm 2 m/S 673 mmHg 67%
    18:00 +13°C° 0.6 mm 2 m/S 672 mmHg 74%
    19:00 +12°C° 0.1 mm 1 m/S 673 mmHg 78%
    20:00 +11°C° 0.1 mm 1 m/S 673 mmHg 82%
    21:00 +10°C° 0.1 mm 0 m/S 673 mmHg 86%
    22:00 +9°C° 0.1 mm 0 m/S 673 mmHg 85%
    23:00 +10°C° 0.1 mm 1 m/S 673 mmHg 85%
    Mehr zeigen